1505955600.64,40782,14.56,73110.8,-2.33,-3.11,-3.11,0,*5B
1505955601.84,40783,14.56,73086.5,-2.35,-3.11,-3.11,0,*5C
1505955603.06,40784,14.56,73056.8,-2.33,-3.39,-3.39,0,*5D
1505955604.29,40785,14.56,73046.5,-2.33,-3.39,-3.39,0,*5C
1505955605.52,40786,14.56,73058.0,-2.33,-3.35,-3.27,0,*5C
1505955606.75,40787,14.56,73080.5,-2.33,-3.27,-3.27,0,*5E
1505955607.97,40788,14.56,73080.3,-2.33,-3.23,-3.27,0,*55
1505955609.19,40789,14.56,73080.0,-2.33,-3.15,-3.23,0,*55
1505955610.42,40790,14.56,73078.8,-2.33,-3.15,-3.15,0,*58
1505955611.64,40791,14.56,73074.8,-2.33,-3.15,-3.23,0,*5C
1505955612.84,40792,14.56,73076.3,-2.35,-3.15,-3.15,0,*5C
1505955614.03,40793,14.56,73086.0,-2.35,-3.23,-3.15,0,*58
1505955615.22,40794,14.56,73088.3,-2.35,-3.15,-3.15,0,*5A
1505955616.42,40795,14.56,73078.5,-2.35,-3.15,-3.15,0,*5B
1505955617.62,40796,14.56,73090.0,-2.35,-3.15,-3.15,0,*58
1505955618.84,40797,14.56,73102.3,-2.33,-3.15,-3.23,0,*5A
1505955620.04,40798,14.56,73058.8,-2.31,-3.15,-3.23,0,*57
1505955621.25,40799,14.56,73070.8,-2.33,-3.23,-3.23,0,*51
1505955622.44,40800,14.56,73038.5,-2.35,-3.15,-3.23,0,*5D
1505955623.66,40801,14.56,73046.3,-2.33,-3.15,-3.23,0,*5A
1505955624.85,40802,14.56,73010.8,-2.35,-3.23,-3.23,0,*5A
1505955626.05,40803,14.56,73016.3,-2.35,-3.23,-3.27,0,*5F
1505955627.26,40804,14.56,73044.3,-2.35,-3.27,-3.27,0,*5C
1505955628.47,40805,14.56,73026.0,-2.33,-3.23,-3.23,0,*5B
1505955629.68,40806,14.56,73062.8,-2.33,-3.23,-3.23,0,*58
1505955630.9,40807,14.56,73056.3,-2.37,-3.19,-3.19,0,*5D
1505955632.1,40808,14.56,73054.5,-2.35,-3.15,-3.23,0,*55
1505955633.33,40809,14.56,73068.0,-2.37,-3.27,-3.27,0,*53
1505955634.56,40810,14.5,73068.5,-2.37,-3.27,-3.19,0,*56
1505955635.78,40811,14.56,73056.3,-2.37,-3.27,-3.19,0,*57
1505955636.97,40812,14.56,73040.0,-2.35,-3.23,-3.15,0,*5E
1505955638.17,40813,14.56,73078.8,-2.35,-3.23,-3.15,0,*5F
1505955639.39,40814,14.56,73064.3,-2.33,-3.15,-3.15,0,*5B
1505955640.61,40815,14.56,73056.8,-2.33,-3.23,-3.15,0,*5F
1505955641.8,40816,14.56,73044.8,-2.35,-3.15,-3.15,0,*5F
1505955643.0,40817,14.56,73052.8,-2.35,-3.15,-3.15,0,*5E
1505955644.2,40818,14.56,73068.0,-2.35,-3.19,-3.19,0,*51
1505955645.39,40819,14.56,73058.0,-2.35,-3.15,-3.15,0,*50
1505955646.59,40820,14.56,73064.8,-2.35,-3.15,-3.15,0,*5A
1505955647.79,40821,14.56,73052.3,-2.35,-3.15,-3.15,0,*5B
1505955648.99,40822,14.56,73064.3,-2.35,-3.15,-3.15,0,*58
1505955650.18,40823,14.56,73054.8,-2.35,-3.15,-3.15,0,*59
1505955651.41,40824,14.56,73064.3,-2.33,-3.15,-3.15,0,*58
1505955652.62,40825,14.56,73054.3,-2.33,-3.23,-3.15,0,*5C
1505955653.82,40826,14.56,73052.0,-2.35,-3.15,-3.15,0,*5C
1505955655.02,40827,14.56,73062.3,-2.35,-3.15,-3.23,0,*58
1505955656.24,40828,14.56,73048.5,-2.33,-3.15,-3.15,0,*54
1505955657.43,40829,14.56,73046.8,-2.35,-3.15,-3.23,0,*56
1505955658.63,40830,14.56,73054.5,-2.35,-3.15,-3.15,0,*5B
1505955659.82,40831,14.56,73050.3,-2.35,-3.23,-3.23,0,*5A
1505955661.02,40832,14.56,73070.5,-2.35,-3.15,-3.15,0,*59
1505955662.21,40833,14.56,73046.5,-2.35,-3.15,-3.15,0,*58
1505955663.44,40834,14.56,73054.8,-2.33,-3.15,-3.15,0,*59
1505955664.64,40835,14.56,73060.3,-2.35,-3.15,-3.15,0,*5E
1505955665.83,40836,14.56,73068.3,-2.35,-3.15,-3.15,0,*5D
1505955667.02,40837,14.56,73086.3,-2.35,-3.23,-3.15,0,*59
1505955668.24,40838,14.56,73098.3,-2.33,-3.23,-3.15,0,*50
1505955669.46,40839,14.56,73086.3,-2.33,-3.23,-3.15,0,*51
1505955670.66,40840,14.56,73084.8,-2.35,-3.15,-3.15,0,*5C
1505955671.88,40841,14.56,73098.8,-2.33,-3.15,-3.15,0,*5B
1505955673.08,40842,14.56,73108.8,-2.35,-3.15,-3.15,0,*5E
1505955674.28,40843,14.56,73098.0,-2.35,-3.15,-3.15,0,*5F
1505955675.47,40844,14.56,73060.8,-2.35,-3.23,-3.15,0,*5D
1505955676.66,40845,14.56,73084.0,-2.35,-3.15,-3.15,0,*59
1505955677.86,40846,14.56,73098.0,-2.35,-3.15,-3.15,0,*5A
1505955679.06,40847,14.56,73090.0,-2.35,-3.15,-3.15,0,*5B
1505955680.26,40848,14.56,73076.0,-2.31,-3.11,-3.19,0,*58
1505955681.48,40849,14.56,73070.5,-2.33,-3.15,-3.23,0,*56
1505955682.7,40850,14.56,73058.0,-2.33,-3.15,-3.15,0,*5B
1505955683.92,40851,14.56,73066.5,-2.33,-3.15,-3.15,0,*5A
1505955685.15,40852,14.56,73060.8,-2.33,-3.15,-3.15,0,*59
1505955686.37,40853,14.56,73096.5,-2.33,-3.11,-3.11,0,*58
1505955687.6,40854,14.56,73068.8,-2.33,-3.11,-3.11,0,*5F
1505955688.82,40855,14.56,73080.5,-2.33,-3.11,-3.15,0,*5A
1505955690.04,40856,14.56,73056.3,-2.33,-3.11,-3.15,0,*59
1505955691.26,40857,14.56,73058.0,-2.33,-3.11,-3.15,0,*58
1505955692.48,40858,14.56,73062.3,-2.33,-3.11,-3.11,0,*53
1505955693.71,40859,14.56,73064.5,-2.33,-3.11,-3.11,0,*52
1505955694.91,40860,14.56,73066.5,-2.31,-3.07,-3.07,0,*5A
1505955696.11,40861,14.56,73072.5,-2.31,-3.03,-3.07,0,*5F
1505955697.31,40862,14.56,73062.0,-2.31,-3.07,-3.07,0,*58
1505955698.54,40863,14.56,73046.5,-2.33,-3.11,-3.11,0,*5B
1505955699.76,40864,14.56,73056.5,-2.33,-3.11,-3.11,0,*5C
1505955700.99,40865,14.56,73050.3,-2.33,-3.15,-3.11,0,*59
1505955702.19,40866,14.56,73062.5,-2.31,-3.07,-3.07,0,*5C
1505955703.41,40867,14.56,73056.0,-2.33,-3.11,-3.11,0,*5F
1505955704.64,40868,14.56,73076.3,-2.33,-3.11,-3.11,0,*50
1505955705.86,40869,14.56,73044.0,-2.33,-3.11,-3.11,0,*51
1505955707.06,40870,14.56,73054.5,-2.31,-3.07,-3.07,0,*5B
1505955708.26,40871,14.56,73072.3,-2.31,-3.07,-3.07,0,*5A
1505955709.49,40872,14.56,73078.8,-2.33,-3.11,-3.11,0,*5B
1505955710.69,40873,14.56,73082.5,-2.31,-3.07,-3.11,0,*5F
1505955711.91,40874,14.56,73086.0,-2.33,-3.11,-3.15,0,*59
1505955713.11,40875,14.56,73088.0,-2.31,-3.11,-3.15,0,*5A
1505955714.33,40876,14.56,73084.8,-2.33,-3.11,-3.15,0,*5B
1505955715.55,40877,14.56,73076.5,-2.33,-3.11,-3.15,0,*5A
1505955716.77,40878,14.56,73078.8,-2.33,-3.11,-3.15,0,*55
1505955717.99,40879,14.56,73082.3,-2.33,-3.11,-3.15,0,*54
1505955719.22,40880,14.56,73094.5,-2.33,-3.11,-3.07,0,*51
1505955720.44,40881,14.56,73108.3,-2.33,-3.11,-3.07,0,*50
1505955721.64,40882,14.56,73110.5,-2.31,-3.03,-3.07,0,*52
1505955722.87,40883,14.56,73104.0,-2.33,-3.11,-3.11,0,*55
1505955724.09,40884,14.56,73096.0,-2.33,-3.11,-3.11,0,*52
1505955725.32,40885,14.56,73086.8,-2.33,-3.07,-3.07,0,*53
1505955726.52,40886,14.56,73068.0,-2.31,-3.07,-3.07,0,*52
1505955727.74,40887,14.56,73072.0,-2.33,-3.11,-3.11,0,*51
1505955728.97,40888,14.56,73048.0,-2.33,-3.11,-3.11,0,*5E
1505955730.19,40889,14.56,73052.5,-2.33,-3.23,-3.11,0,*5E
1505955731.39,40890,14.56,73044.0,-2.31,-3.11,-3.07,0,*52
1505955732.59,40891,14.56,73008.5,-2.31,-3.11,-3.07,0,*53
1505955733.82,40892,14.56,73078.3,-2.33,-3.15,-3.15,0,*55
1505955735.02,40893,14.56,73054.0,-2.31,-3.11,-3.11,0,*56
1505955736.22,40894,14.56,73058.8,-2.31,-3.11,-3.07,0,*56
1505955737.42,40895,14.56,73076.8,-2.31,-3.11,-3.07,0,*57
1505955738.65,40896,14.56,73060.5,-2.33,-3.15,-3.15,0,*51
1505955739.85,40897,14.56,73078.3,-2.31,-3.11,-3.11,0,*52
1505955741.05,40898,14.56,73072.5,-2.31,-3.11,-3.11,0,*5D
1505955742.25,40899,14.56,73082.8,-2.31,-3.11,-3.11,0,*5C
1505955743.45,40900,14.56,73070.3,-2.31,-3.19,-3.11,0,*55
1505955744.65,40901,14.56,73096.0,-2.31,-3.11,-3.11,0,*5C
1505955745.86,40902,14.56,73092.3,-2.31,-3.11,-3.11,0,*5F
1505955747.06,40903,14.56,73098.3,-2.31,-3.11,-3.11,0,*5E
1505955748.26,40904,14.56,73082.0,-2.31,-3.11,-3.11,0,*59
1505955749.48,40905,14.56,73090.0,-2.33,-3.15,-3.11,0,*5E
1505955750.69,40906,14.56,73084.8,-2.31,-3.11,-3.07,0,*5C
1505955751.91,40907,14.56,73078.8,-2.33,-3.11,-3.11,0,*58
1505955753.11,40908,14.56,73082.8,-2.31,-3.07,-3.07,0,*55
1505955754.33,40909,14.56,73080.0,-2.33,-3.11,-3.15,0,*52
1505955755.54,40910,14.56,73080.3,-2.31,-3.11,-3.11,0,*5C
1505955756.75,40911,14.56,73090.3,-2.33,-3.23,-3.15,0,*5A
1505955757.95,40912,14.56,73098.8,-2.31,-3.11,-3.11,0,*5E
1505955759.16,40913,14.56,73084.3,-2.31,-3.11,-3.11,0,*5F
1505955760.36,40914,14.56,73076.5,-2.31,-3.11,-3.11,0,*58
1505955761.55,40915,14.56,73062.0,-2.31,-3.19,-3.19,0,*59
1505955762.75,40916,14.56,73044.5,-2.31,-3.31,-3.23,0,*59
1505955763.95,40917,14.56,73044.3,-2.31,-3.19,-3.23,0,*52
1505955765.14,40918,14.56,73072.8,-2.31,-3.19,-3.19,0,*54
1505955766.34,40919,14.56,73062.3,-2.31,-3.19,-3.19,0,*55
1505955767.56,40920,14.56,73068.8,-2.33,-3.15,-3.23,0,*58
1505955768.79,40921,14.56,73072.5,-2.33,-3.15,-3.15,0,*5C
1505955769.99,40922,14.56,73068.3,-2.31,-3.11,-3.11,0,*5D
1505955771.21,40923,14.56,73086.5,-2.33,-3.15,-3.15,0,*5E
1505955772.43,40924,14.56,73096.0,-2.33,-3.15,-3.15,0,*59
1505955773.66,40925,14.56,73086.0,-2.33,-3.15,-3.15,0,*58
1505955774.86,40926,14.56,73076.3,-2.31,-3.11,-3.19,0,*51
1505955776.06,40927,14.56,73082.0,-2.31,-3.19,-3.11,0,*50
1505955777.27,40928,14.56,73084.5,-2.33,-3.23,-3.23,0,*55
1505955778.47,40929,14.56,73082.3,-2.31,-3.19,-3.19,0,*56
1505955779.69,40930,14.56,73080.8,-2.33,-3.15,-3.23,0,*59
1505955780.89,40931,14.56,73086.5,-2.31,-3.19,-3.11,0,*57
1505955782.11,40932,14.56,73076.8,-2.33,-3.23,-3.15,0,*5B
1505955783.33,40933,14.56,73076.0,-2.33,-3.15,-3.15,0,*5F
1505955784.53,40934,14.56,73098.8,-2.31,-3.11,-3.11,0,*5A
1505955785.75,40935,14.56,73092.3,-2.33,-3.23,-3.15,0,*5C
1505955786.95,40936,14.56,73076.3,-2.31,-3.19,-3.11,0,*50
1505955788.15,40937,14.56,73086.8,-2.31,-3.19,-3.11,0,*51
1505955789.36,40938,14.56,73088.0,-2.33,-3.23,-3.23,0,*54
1505955790.59,40939,14.56,73074.8,-2.33,-3.15,-3.15,0,*55
1505955791.81,40940,14.56,73080.5,-2.33,-3.23,-3.15,0,*5E
1505955793.03,40941,14.56,73098.5,-2.33,-3.11,-3.15,0,*5E
1505955794.23,40942,14.56,73068.8,-2.31,-3.11,-3.11,0,*5B
1505955795.43,40943,14.56,73078.0,-2.31,-3.19,-3.19,0,*5A
1505955796.63,40944,14.56,73092.8,-2.31,-3.11,-3.11,0,*5D
1505955797.83,40945,14.56,73092.3,-2.35,-3.15,-3.15,0,*58
1505955799.03,40946,14.56,73088.8,-2.31,-3.11,-3.11,0,*5F
1505955800.25,40947,14.56,73084.3,-2.33,-3.15,-3.15,0,*5C
1505955801.47,40948,14.56,73086.3,-2.33,-3.15,-3.15,0,*53
1505955802.69,40949,14.56,73060.5,-2.29,-3.19,-3.19,0,*59
1505955803.89,40950,14.56,73052.8,-2.31,-3.35,-3.31,0,*5C
1505955805.09,40951,14.56,73040.5,-2.31,-3.23,-3.35,0,*5E
1505955806.28,40952,14.56,73056.8,-2.31,-3.23,-3.23,0,*5A
1505955807.48,40953,14.56,73058.0,-2.31,-3.19,-3.11,0,*53
1505955808.7,40954,14.56,73078.3,-2.33,-3.23,-3.15,0,*5B
1505955809.93,40955,14.56,73078.5,-2.33,-3.15,-3.15,0,*5F
1505955811.12,40956,14.56,73064.8,-2.31,-3.19,-3.19,0,*5E
1505955812.34,40957,14.56,73032.3,-2.33,-3.15,-3.23,0,*58
1505955813.56,40958,14.56,73048.3,-2.33,-3.23,-3.23,0,*52
1505955814.77,40959,14.56,73074.0,-2.33,-3.23,-3.23,0,*53
1505955815.98,40960,14.56,73058.3,-2.33,-3.23,-3.23,0,*59
1505955817.18,40961,14.56,73070.3,-2.31,-3.23,-3.15,0,*5F
1505955818.38,40962,14.56,73070.8,-2.31,-3.11,-3.11,0,*59
1505955819.59,40963,14.56,73040.8,-2.33,-3.23,-3.23,0,*5A
1505955820.79,40964,14.56,73062.5,-2.31,-3.19,-3.11,0,*57
1505955822.01,40965,14.56,73054.8,-2.33,-3.23,-3.23,0,*5C
1505955823.21,40966,14.56,73068.3,-2.31,-3.11,-3.11,0,*5D
1505955824.43,40967,14.56,73066.5,-2.33,-3.15,-3.15,0,*5E
1505955825.62,40968,14.56,73062.5,-2.31,-3.23,-3.23,0,*53
1505955826.85,40969,14.56,73066.5,-2.33,-3.15,-3.15,0,*50
1505955828.05,40970,14.56,73066.8,-2.31,-3.11,-3.11,0,*5A
1505955829.25,40971,14.56,73064.3,-2.31,-3.11,-3.19,0,*53
1505955830.47,40972,14.56,73074.0,-2.33,-3.23,-3.15,0,*5F
1505955831.69,40973,14.56,73072.3,-2.33,-3.23,-3.27,0,*5F
1505955832.89,40974,14.56,73080.5,-2.31,-3.15,-3.23,0,*5B
1505955834.1,40975,14.56,73050.0,-2.33,-3.23,-3.15,0,*58
1505955835.33,40976,14.56,73062.8,-2.33,-3.15,-3.15,0,*5E
1505955836.54,40977,14.56,73076.0,-2.33,-3.23,-3.23,0,*5F
1505955837.74,40978,14.56,73076.3,-2.31,-3.11,-3.11,0,*52
1505955838.94,40979,14.56,73072.8,-2.31,-3.11,-3.11,0,*53
1505955840.16,40980,14.56,73078.3,-2.33,-3.15,-3.23,0,*52
1505955841.39,40981,14.56,73082.8,-2.33,-3.23,-3.35,0,*51
1505955842.61,40982,14.56,73088.5,-2.33,-3.15,-3.15,0,*55
1505955843.83,40983,14.56,73082.8,-2.33,-3.15,-3.15,0,*54
1505955845.06,40984,14.56,73080.3,-2.33,-3.15,-3.15,0,*53
1505955846.28,40985,14.56,73084.5,-2.33,-3.15,-3.15,0,*52
1505955847.5,40986,14.56,73080.3,-2.33,-3.15,-3.15,0,*51
1505955848.72,40987,14.56,73066.5,-2.33,-3.11,-3.23,0,*51
1505955849.92,40988,14.56,73074.3,-2.31,-3.11,-3.11,0,*5D
1505955851.15,40989,14.56,73080.3,-2.33,-3.15,-3.15,0,*5E
1505955852.35,40990,14.56,73084.3,-2.31,-3.11,-3.11,0,*54
1505955853.57,40991,14.56,73072.3,-2.33,-3.15,-3.15,0,*57
1505955854.77,40992,14.56,73068.3,-2.31,-3.19,-3.19,0,*56
1505955855.97,40993,14.56,73076.0,-2.31,-3.11,-3.11,0,*57
1505955857.19,40994,14.56,73076.5,-2.33,-3.23,-3.15,0,*57
1505955858.39,40995,14.56,73090.3,-2.31,-3.11,-3.15,0,*55
1505955859.6,40996,14.56,73088.8,-2.33,-3.23,-3.15,0,*55
1505955860.82,40997,14.56,73090.3,-2.33,-3.23,-3.15,0,*54
1505955862.04,40998,14.56,73096.0,-2.33,-3.23,-3.15,0,*5B
1505955863.24,40999,14.56,73102.5,-2.31,-3.11,-3.11,0,*5D
1505955864.46,41000,14.56,73104.0,-2.33,-3.15,-3.23,0,*52
1505955865.66,41001,14.56,73098.0,-2.31,-3.11,-3.11,0,*54
1505955866.86,41002,14.56,73080.8,-2.31,-3.11,-3.11,0,*57
1505955868.06,41003,14.56,73082.0,-2.31,-3.11,-3.11,0,*56
1505955869.28,41004,14.56,73070.5,-2.33,-3.23,-3.15,0,*56
1505955870.48,41005,14.56,73062.3,-2.31,-3.19,-3.19,0,*50
1505955871.69,41006,14.56,73064.0,-2.33,-3.23,-3.23,0,*51
1505955872.91,41007,14.56,73078.8,-2.33,-3.23,-3.23,0,*50
1505955874.1,41008,14.56,73078.3,-2.31,-3.23,-3.23,0,*5D
1505955875.3,41009,14.56,73062.0,-2.31,-3.19,-3.19,0,*5C
1505955876.52,41010,14.56,73026.3,-2.33,-3.23,-3.27,0,*52
1505955877.72,41011,14.56,72988.5,-2.31,-3.35,-3.31,0,*51
1505955878.95,41012,14.56,72984.3,-2.33,-3.39,-3.35,0,*58
1505955880.18,41013,14.56,73028.5,-2.33,-3.35,-3.35,0,*55
1505955881.4,41014,14.56,73020.0,-2.33,-3.35,-3.35,0,*52
1505955882.63,41015,14.56,73030.0,-2.33,-3.27,-3.23,0,*57
1505955883.84,41016,14.56,73032.8,-2.33,-3.23,-3.23,0,*50
1505955885.05,41017,14.56,73038.3,-2.33,-3.23,-3.23,0,*51
1505955886.28,41018,14.56,73054.5,-2.33,-3.15,-3.15,0,*5E
1505955887.49,41019,14.56,73062.3,-2.33,-3.23,-3.23,0,*5F
1505955888.71,41020,14.56,73056.3,-2.33,-3.23,-3.15,0,*50
1505955889.93,41021,14.56,73066.0,-2.33,-3.15,-3.15,0,*54
1505955891.13,41022,14.56,73088.8,-2.31,-3.15,-3.15,0,*55
1505955892.35,41023,14.56,73088.8,-2.33,-3.15,-3.23,0,*53
1505955893.57,41024,14.56,73080.0,-2.33,-3.23,-3.15,0,*54
1505955894.79,41025,14.56,73092.8,-2.33,-3.23,-3.15,0,*55
1505955896.02,41026,14.56,73092.3,-2.33,-3.15,-3.27,0,*52
1505955897.24,41027,14.56,73098.8,-2.33,-3.15,-3.15,0,*52
1505955898.46,41028,14.56,73104.8,-2.33,-3.15,-3.15,0,*5D
1505955899.69,41029,14.56,73082.8,-2.33,-3.15,-3.23,0,*59
1505955900.91,41030,14.56,73078.8,-2.33,-3.15,-3.15,0,*54
1505955902.13,41031,14.56,73076.5,-2.33,-3.15,-3.15,0,*55
1505955903.35,41032,14.56,73068.3,-2.33,-3.15,-3.15,0,*56
1505955904.58,41033,14.56,73076.8,-2.33,-3.15,-3.15,0,*57
1505955905.8,41034,14.56,73078.0,-2.33,-3.15,-3.23,0,*55
1505955906.99,41035,14.56,73086.5,-2.35,-3.23,-3.23,0,*57
1505955908.2,41036,14.56,73088.0,-2.33,-3.23,-3.23,0,*52
1505955909.39,41037,14.56,73076.0,-2.35,-3.23,-3.15,0,*50
1505955910.61,41038,14.56,73064.8,-2.33,-3.23,-3.15,0,*59
1505955911.83,41039,14.56,73078.5,-2.33,-3.23,-3.15,0,*58
1505955913.05,41040,14.56,73064.3,-2.33,-3.15,-3.15,0,*53
1505955914.27,41041,14.56,73062.0,-2.33,-3.15,-3.15,0,*52
1505955915.5,41042,14.56,73098.8,-2.33,-3.15,-3.15,0,*51
1505955916.71,41043,14.56,73104.5,-2.33,-3.23,-3.15,0,*55
1505955917.94,41044,14.56,73104.5,-2.33,-3.15,-3.15,0,*57
1505955919.16,41045,14.56,73096.5,-2.33,-3.11,-3.23,0,*57
1505955920.38,41046,14.56,73094.0,-2.33,-3.15,-3.15,0,*55
1505955921.6,41047,14.56,73092.0,-2.33,-3.15,-3.15,0,*54
1505955922.83,41048,14.56,73096.0,-2.33,-3.15,-3.15,0,*5B
1505955924.05,41049,14.56,73100.8,-2.33,-3.15,-3.15,0,*5A
1505955925.27,41050,14.56,73096.3,-2.33,-3.15,-3.15,0,*52
1505955926.5,41051,14.56,73094.8,-2.33,-3.15,-3.15,0,*53
1505955927.71,41052,14.56,73098.3,-2.33,-3.23,-3.23,0,*50
1505955928.93,41053,14.56,73104.5,-2.33,-3.15,-3.15,0,*51
1505955930.14,41054,14.56,73106.3,-2.31,-3.11,-3.11,0,*54
1505955931.33,41055,14.56,73096.3,-2.31,-3.19,-3.19,0,*55
1505955932.56,41056,14.56,73096.8,-2.33,-3.15,-3.15,0,*54
1505955933.77,41057,14.56,73094.5,-2.33,-3.23,-3.15,0,*50
1505955934.99,41058,14.56,73090.8,-2.33,-3.23,-3.15,0,*5F
1505955936.21,41059,14.56,73092.5,-2.33,-3.23,-3.15,0,*5E
1505955937.43,41060,14.56,73096.5,-2.33,-3.15,-3.15,0,*51
1505955938.63,41061,14.56,73090.0,-2.31,-3.11,-3.19,0,*5A
1505955939.83,41062,14.56,73096.8,-2.31,-3.11,-3.11,0,*51
1505955941.03,41063,14.56,73104.5,-2.31,-3.19,-3.19,0,*50
1505955942.25,41064,14.56,73092.3,-2.33,-3.15,-3.15,0,*55
1505955943.45,41065,14.56,73100.8,-2.31,-3.11,-3.11,0,*56
1505955944.68,41066,14.56,73098.0,-2.33,-3.15,-3.15,0,*57
1505955945.9,41067,14.56,73100.5,-2.33,-3.15,-3.15,0,*56
1505955947.1,41068,14.56,73110.5,-2.31,-3.11,-3.11,0,*5B
1505955948.3,41069,14.56,73106.5,-2.31,-3.19,-3.19,0,*5A
1505955949.5,41070,14.56,73098.3,-2.31,-3.11,-3.11,0,*52
1505955950.73,41071,14.56,73096.3,-2.33,-3.15,-3.15,0,*51
1505955951.93,41072,14.56,73080.8,-2.31,-3.11,-3.11,0,*50
1505955953.15,41073,14.56,73094.3,-2.33,-3.15,-3.15,0,*53
1505955954.37,41074,14.56,73100.8,-2.33,-3.23,-3.23,0,*54
1505955955.58,41075,14.56,73096.5,-2.33,-3.15,-3.23,0,*50
1505955956.8,41076,14.56,73074.8,-2.33,-3.23,-3.15,0,*53
1505955958.02,41077,14.56,73080.8,-2.33,-3.23,-3.23,0,*57
1505955959.25,41078,14.56,73092.3,-2.33,-3.27,-3.27,0,*58
1505955960.48,41079,14.56,73096.8,-2.33,-3.27,-3.27,0,*59
1505955961.7,41080,14.56,73116.5,-2.33,-3.15,-3.23,0,*5A
1505955962.91,41081,14.56,73090.3,-2.33,-3.23,-3.23,0,*5E
1505955964.13,41082,14.56,73096.0,-2.33,-3.23,-3.23,0,*5D
1505955965.33,41083,14.56,73100.8,-2.31,-3.31,-3.19,0,*54
1505955966.54,41084,14.56,73094.3,-2.33,-3.23,-3.23,0,*5B
1505955967.76,41085,14.56,73104.8,-2.33,-3.23,-3.23,0,*5A
1505955968.97,41086,14.56,73104.3,-2.33,-3.23,-3.15,0,*5C
1505955970.2,41087,14.56,73100.8,-2.33,-3.15,-3.15,0,*58
1505955971.41,41088,14.56,73084.3,-2.33,-3.23,-3.23,0,*57
1505955972.63,41089,14.56,73078.8,-2.33,-3.23,-3.15,0,*53
1505955973.85,41090,14.56,73074.0,-2.33,-3.15,-3.15,0,*5E
1505955975.06,41091,14.56,73076.8,-2.33,-3.23,-3.23,0,*5F
1505955976.28,41092,14.56,73076.8,-2.33,-3.23,-3.15,0,*59
1505955977.5,41093,14.56,73060.8,-2.33,-3.23,-3.15,0,*58
1505955978.7,41094,14.56,73072.8,-2.31,-3.19,-3.11,0,*50
1505955979.91,41095,14.56,73088.5,-2.33,-3.23,-3.23,0,*5B
1505955981.13,41096,14.56,73076.5,-2.33,-3.23,-3.23,0,*58
1505955982.32,41097,14.56,73076.8,-2.31,-3.19,-3.19,0,*5B
1505955983.54,41098,14.56,73086.3,-2.33,-3.23,-3.15,0,*53
1505955984.76,41099,14.56,73102.0,-2.33,-3.27,-3.23,0,*53
1505955985.99,41100,14.56,73100.5,-2.33,-3.23,-3.27,0,*52
1505955987.19,41101,14.56,73092.3,-2.35,-3.23,-3.27,0,*55
1505955988.39,41102,14.56,73088.0,-2.35,-3.27,-3.27,0,*52
1505955989.58,41103,14.56,73114.8,-2.35,-3.23,-3.23,0,*53
1505955990.77,41104,14.56,73082.5,-2.35,-3.23,-3.23,0,*54
1505955991.97,41105,14.56,73072.0,-2.35,-3.39,-3.39,0,*55
1505955993.17,41106,14.56,73072.3,-2.35,-3.27,-3.39,0,*59
1505955994.37,41107,14.56,73100.3,-2.35,-3.35,-3.27,0,*54
1505955995.58,41108,14.56,73100.8,-2.35,-3.27,-3.27,0,*58
1505955996.78,41109,14.56,73084.3,-2.35,-3.35,-3.35,0,*59
1505955998.01,41110,14.56,73066.0,-2.33,-3.27,-3.35,0,*54
1505955999.21,41111,14.56,73082.0,-2.35,-3.35,-3.35,0,*50
1505956000.42,41112,14.56,73076.8,-2.35,-3.27,-3.27,0,*53
1505956001.62,41113,14.56,73086.3,-2.35,-3.27,-3.27,0,*52
1505956002.82,41114,14.56,73064.0,-2.35,-3.35,-3.35,0,*55
1505956004.06,41115,14.56,73072.5,-2.33,-3.27,-3.27,0,*52
1505956005.26,41116,14.56,73050.0,-2.35,-3.27,-3.27,0,*57
1505956006.49,41117,14.56,73058.5,-2.37,-3.31,-3.27,0,*53
1505956007.72,41118,14.56,73056.3,-2.37,-3.27,-3.19,0,*56
1505956008.91,41119,14.56,73066.5,-2.35,-3.15,-3.23,0,*5D
1505956010.14,41120,14.56,73066.3,-2.37,-3.27,-3.19,0,*5D
1505956011.33,41121,14.56,73108.8,-2.35,-3.15,-3.23,0,*56
1505956012.53,41122,14.5,73064.0,-2.35,-3.23,-3.27,0,*54
1505956013.73,41123,14.56,73048.5,-2.35,-3.35,-3.35,0,*51
1505956014.98,41124,14.56,73064.5,-2.35,-3.47,-3.47,0,*56
1505956016.25,41125,14.56,73056.5,-2.37,-3.51,-3.55,0,*51
1505956017.45,41126,14.56,73026.5,-2.35,-3.39,-3.39,0,*54
1505956018.64,41127,14.56,72986.3,-2.35,-3.27,-3.23,0,*51
1505956019.87,41128,14.56,73066.3,-2.37,-3.27,-3.27,0,*58
1505956021.07,41129,14.56,73060.3,-2.35,-3.23,-3.27,0,*5F
1505956022.27,41130,14.56,73076.8,-2.35,-3.15,-3.15,0,*53
1505956023.47,41131,14.56,73070.0,-2.35,-3.15,-3.15,0,*52
1505956024.66,41132,14.56,73078.0,-2.35,-3.23,-3.15,0,*54
1505956025.86,41133,14.56,73086.5,-2.35,-3.27,-3.31,0,*57
1505956027.06,41134,14.56,73082.3,-2.35,-3.35,-3.39,0,*5B
1505956028.29,41135,14.56,73074.5,-2.37,-3.31,-3.31,0,*54
1505956029.49,41136,14.56,73076.5,-2.35,-3.27,-3.27,0,*55
1505956030.68,41137,14.56,73072.3,-2.35,-3.15,-3.23,0,*51
1505956031.87,41138,14.56,73076.0,-2.35,-3.23,-3.23,0,*5B
1505956033.09,41139,14.56,73066.8,-2.37,-3.19,-3.19,0,*58
1505956034.29,41140,14.56,73082.3,-2.35,-3.15,-3.15,0,*54
1505956035.49,41141,14.56,73082.0,-2.35,-3.15,-3.15,0,*55
1505956036.71,41142,14.56,73072.8,-2.37,-3.19,-3.19,0,*54
1505956037.91,41143,14.56,73092.0,-2.35,-3.15,-3.23,0,*52
1505956039.1,41144,14.56,73084.8,-2.35,-3.27,-3.23,0,*54
1505956040.3,41145,14.56,73074.0,-2.35,-3.35,-3.35,0,*51
1505956041.53,41146,14.56,73068.0,-2.37,-3.39,-3.39,0,*50
1505956042.76,41147,14.56,73068.0,-2.37,-3.31,-3.31,0,*51
1505956043.98,41148,14.56,73076.8,-2.37,-3.19,-3.19,0,*5E
1505956045.19,41149,14.56,73086.5,-2.33,-3.23,-3.23,0,*5B
1505956046.42,41150,14.56,73094.8,-2.37,-3.27,-3.19,0,*5A
1505956047.64,41151,14.56,73080.0,-2.37,-3.27,-3.19,0,*5B
1505956048.87,41152,14.56,73082.5,-2.37,-3.27,-3.27,0,*55
1505956050.1,41153,14.56,73096.3,-2.37,-3.27,-3.19,0,*59
1505956051.3,41154,14.56,73080.0,-2.35,-3.15,-3.15,0,*51
1505956052.49,41155,14.56,73084.0,-2.35,-3.15,-3.15,0,*50
1505956053.72,41156,14.56,73088.0,-2.37,-3.19,-3.19,0,*51
1505956054.91,41157,14.56,73086.3,-2.35,-3.23,-3.15,0,*57
1505956056.1,41158,14.56,73098.0,-2.35,-3.15,-3.15,0,*5D
1505956057.3,41159,14.56,73092.0,-2.35,-3.15,-3.15,0,*5C
1505956058.5,41160,14.56,73086.5,-2.35,-3.15,-3.15,0,*56
1505956059.69,41161,14.56,73092.5,-2.35,-3.15,-3.23,0,*52
1505956060.89,41162,14.56,73098.3,-2.35,-3.15,-3.15,0,*54
1505956062.09,41163,14.56,73106.3,-2.35,-3.15,-3.15,0,*55
1505956063.29,41164,14.56,73106.3,-2.35,-3.15,-3.15,0,*52
1505956064.49,41165,14.56,73108.5,-2.31,-3.11,-3.11,0,*57
1505956065.68,41166,14.56,73102.8,-2.35,-3.15,-3.23,0,*55
1505956066.88,41167,14.56,73102.0,-2.35,-3.15,-3.15,0,*51
1505956068.08,41168,14.56,73094.0,-2.35,-3.15,-3.23,0,*5B
1505956069.27,41169,14.56,73102.5,-2.35,-3.23,-3.15,0,*5A
1505956070.48,41170,14.56,73098.3,-2.33,-3.23,-3.15,0,*54
1505956071.7,41171,14.56,73104.8,-2.37,-3.19,-3.19,0,*54
1505956072.9,41172,14.56,73106.0,-2.35,-3.15,-3.15,0,*55
1505956074.09,41173,14.56,73102.0,-2.35,-3.23,-3.15,0,*51
1505956075.29,41174,14.56,73098.0,-2.35,-3.15,-3.15,0,*53
1505956076.52,41175,14.56,73104.0,-2.37,-3.27,-3.27,0,*50
1505956077.72,41176,14.56,73106.5,-2.35,-3.15,-3.23,0,*54
1505956078.95,41177,14.56,73054.8,-2.37,-3.39,-3.39,0,*52
1505956080.17,41178,14.56,73058.3,-2.37,-3.39,-3.31,0,*55
1505956081.38,41179,14.56,73110.8,-2.35,-3.27,-3.27,0,*5E
1505956082.58,41180,14.56,73118.8,-2.35,-3.35,-3.35,0,*58
1505956083.81,41181,14.56,73096.8,-2.37,-3.39,-3.39,0,*5B
1505956085.01,41182,14.56,73090.8,-2.35,-3.35,-3.35,0,*5A
1505956086.21,41183,14.56,73090.5,-2.35,-3.15,-3.15,0,*5B
1505956087.4,41184,14.56,73098.5,-2.35,-3.23,-3.15,0,*59
1505956088.59,41185,14.5,73114.8,-2.35,-3.15,-3.15,0,*5D
1505956089.79,41186,14.56,73128.8,-2.35,-3.15,-3.15,0,*5E
1505956090.98,41187,14.56,73112.3,-2.35,-3.23,-3.23,0,*5F
1505956092.18,41188,14.56,73098.5,-2.35,-3.35,-3.39,0,*5C
1505956093.39,41189,14.5,73092.8,-2.35,-3.27,-3.27,0,*51
1505956094.61,41190,14.56,73108.0,-2.33,-3.27,-3.15,0,*5E
1505956095.8,41191,14.56,73084.3,-2.35,-3.23,-3.15,0,*5D
1505956097.0,41192,14.56,73090.3,-2.35,-3.27,-3.19,0,*56
1505956098.2,41193,14.56,73108.0,-2.35,-3.15,-3.23,0,*5F
1505956099.43,41194,14.56,73092.3,-2.37,-3.27,-3.27,0,*5F
1505956100.62,41195,14.56,73082.0,-2.35,-3.23,-3.23,0,*5C